Driggs, ID

6:19 AM MDT on July 29, 2017 (GMT -0600)
Driggs

Weather History for KDIJ - March, 2014

Change the Weather History Date:

Tuesday, March 11, 2014

  Actual Average (KJAC) Record (KJAC)
Temperature  
Mean Temperature 26 °F -  
Max Temperature 36 °F 40 °F 55 °F (1989)
Min Temperature 16 °F 12 °F -19 °F (1969)
Degree Days  
Heating Degree Days 39    
Moisture  
Dew Point 24 °F    
Average Humidity 86    
Maximum Humidity 96    
Minimum Humidity 53    
Precipitation  
Precipitation 0.02 in - - ()
Sea Level Pressure  
Sea Level Pressure 30.10 in    
Wind  
Wind Speed 11 mph (NW)    
Max Wind Speed 18 mph    
Max Gust Speed -    
Visibility 5 miles    
Events Snow    
Averages and records for this station are not official NWS values.
T = Trace of Precipitation, MM = Missing Value Source: NWS Daily Summary

Daily Weather History Graph

Daily Weather History Graph

Search for Another Location

Airport or City:

Trip Planner

Search our weather history database for the weather conditions in past years. The results will help you decide how hot, cold, wet, or windy it might be!

Date:

Astronomy

Mar. 11, 2014 Rise Set
Actual Time 7:43 AM MDT 7:25 PM MDT
Civil Twilight 7:14 AM MDT 7:54 PM MDT
Nautical Twilight 6:41 AM MDT 8:27 PM MDT
Astronomical Twilight 6:08 AM MDT 9:01 PM MDT
Moon 2:58 PM MDT (3/11) 4:46 AM MDT (3/11)
Length of Visible Light 12h 39m
Length of Day
11h 42m
Waxing Gibbous, 78% of the Moon is Illuminated
Mar 11
Waxing Gibbous
Mar 16
Full
Mar 23
Last Quarter
Mar 30
New
Apr 7
First Quarter

Hourly Weather History & Observations

Time (MDT) Temp. Windchill Dew Point Humidity Pressure Visibility Wind Dir Wind Speed Gust Speed Precip Events Conditions
12:13 AM 28.4 °F 18.0 °F 26.6 °F 93% 29.91 in 3.0 mi WNW 12.7 mph - 0.00 in Snow Light Snow
12:17 AM 28.4 °F 16.6 °F 26.6 °F 93% 29.91 in 1.8 mi WNW 16.1 mph - 0.00 in Snow Light Snow
12:21 AM 28.4 °F 16.2 °F 26.6 °F 93% 29.91 in 1.2 mi WNW 17.3 mph - 0.00 in Snow Light Snow
12:33 AM 28.4 °F 16.6 °F 26.6 °F 93% 29.92 in 1.0 mi WNW 16.1 mph - 0.00 in Snow Light Snow
12:56 AM 29.1 °F 17.5 °F 27.1 °F 92% 29.86 in 1.2 mi WNW 16.1 mph - 0.00 in Snow Light Snow
1:07 AM 28.4 °F 16.2 °F 26.6 °F 93% 29.91 in 1.5 mi WNW 17.3 mph - 0.00 in Snow Light Snow
1:21 AM 28.4 °F 15.8 °F 26.6 °F 93% 29.92 in 2.0 mi WNW 18.4 mph - 0.00 in Snow Light Snow
1:35 AM 28.4 °F 16.6 °F 26.6 °F 93% 29.92 in 2.5 mi WNW 16.1 mph - 0.00 in Snow Light Snow
1:56 AM 28.0 °F 15.7 °F 26.1 °F 92% 29.90 in 2.5 mi WNW 17.3 mph - 0.00 in Snow Light Snow
2:17 AM 28.4 °F 18.5 °F 24.8 °F 86% 29.93 in 3.0 mi WNW 11.5 mph - 0.00 in Snow Light Snow
2:33 AM 28.4 °F 16.2 °F 24.8 °F 86% 29.94 in 3.0 mi NW 17.3 mph - 0.00 in Snow Light Snow
2:44 AM 28.4 °F 18.0 °F 24.8 °F 86% 29.94 in 2.5 mi WNW 12.7 mph - 0.00 in Snow Light Snow
2:56 AM 29.1 °F 18.4 °F 24.1 °F 81% 29.92 in 4.0 mi WNW 13.8 mph - 0.00 in Snow Light Snow
3:49 AM 28.4 °F 17.0 °F 23.0 °F 80% 29.97 in 2.5 mi NW 15.0 mph - 0.00 in Snow Light Snow
3:56 AM 28.0 °F 15.7 °F 24.1 °F 85% 29.95 in 2.5 mi WNW 17.3 mph - 0.00 in Snow Light Snow
4:14 AM 26.6 °F 14.7 °F 24.8 °F 93% 29.97 in 1.5 mi WNW 15.0 mph - 0.00 in Snow Light Snow
4:28 AM 26.6 °F 15.7 °F 24.8 °F 93% 29.98 in 1.2 mi WNW 12.7 mph - 0.00 in Snow Light Snow
4:56 AM 26.1 °F 16.8 °F 25.2 °F 96% 29.98 in 1.0 mi WNW 9.2 mph - 0.00 in Snow Light Snow
5:08 AM 26.6 °F 16.8 °F 24.8 °F 93% 29.99 in 1.0 mi NW 10.4 mph - 0.00 in Snow Light Snow
5:22 AM 26.6 °F 19.1 °F 24.8 °F 93% 30.00 in 0.8 mi NW 6.9 mph - 0.00 in Snow Light Snow
5:31 AM 26.6 °F 19.1 °F 24.8 °F 93% 30.00 in 1.0 mi NW 6.9 mph - 0.00 in Snow Light Snow
5:56 AM 26.1 °F 20.5 °F 25.2 °F 96% 30.00 in 1.0 mi NE 4.6 mph - 0.01 in Snow Light Snow
6:05 AM 26.6 °F 20.0 °F 24.8 °F 93% 30.02 in 1.5 mi NE 5.8 mph - 0.00 in Snow Light Snow
6:21 AM 26.6 °F 19.1 °F 24.8 °F 93% 30.03 in 1.5 mi ENE 6.9 mph - 0.00 in Snow Light Snow
6:56 AM 26.1 °F 20.5 °F 25.2 °F 96% 30.04 in 2.0 mi NNE 4.6 mph - 0.00 in Snow Light Snow
7:14 AM 26.6 °F 21.2 °F 24.8 °F 93% 30.06 in 1.5 mi NW 4.6 mph - 0.00 in Snow Light Snow
7:37 AM 26.6 °F 20.0 °F 24.8 °F 93% 30.07 in 1.0 mi North 5.8 mph - 0.01 in Snow Light Snow
7:46 AM 26.6 °F 20.0 °F 24.8 °F 93% 30.08 in 0.8 mi North 5.8 mph - 0.01 in Snow Light Snow
7:56 AM 26.1 °F 20.5 °F 24.1 °F 92% 30.08 in 1.2 mi North 4.6 mph - 0.01 in Snow Light Snow
7:59 AM 26.6 °F 21.2 °F 24.8 °F 93% 30.08 in 2.0 mi North 4.6 mph - 0.00 in Snow Light Snow
8:08 AM 26.6 °F 20.0 °F 24.8 °F 93% 30.09 in 5.0 mi North 5.8 mph - 0.00 in Snow Light Snow
8:56 AM 27.1 °F 20.7 °F 25.2 °F 92% 30.13 in 4.0 mi NNE 5.8 mph - 0.00 in Snow Light Snow
9:21 AM 28.4 °F 24.6 °F 24.8 °F 86% 30.14 in 8.0 mi NNE 3.5 mph - 0.00 in   Overcast
9:56 AM 28.0 °F 22.8 °F 24.1 °F 85% 30.18 in 9.0 mi NNW 4.6 mph - 0.00 in   Overcast
10:22 AM 28.4 °F - 24.8 °F 86% 30.19 in 9.0 mi Calm Calm - N/A   Scattered Clouds
10:56 AM 31.1 °F - 26.1 °F 82% 30.22 in 8.0 mi Calm Calm - N/A   Mostly Cloudy
11:18 AM 26.6 °F 19.1 °F 24.8 °F 93% 30.22 in 8.0 mi NW 6.9 mph - N/A   Scattered Clouds
11:56 AM 28.0 °F 24.2 °F 25.2 °F 89% 30.26 in 10.0 mi WNW 3.5 mph - N/A   Clear
12:56 PM 30.0 °F 26.5 °F 25.2 °F 82% 30.28 in 9.0 mi SSE 3.5 mph - N/A   Clear
1:56 PM 32.0 °F 28.7 °F 25.2 °F 76% 30.30 in 8.0 mi SSE 3.5 mph - N/A   Partly Cloudy
2:56 PM 32.9 °F - 22.1 °F 65% 30.29 in 8.0 mi Calm Calm - N/A   Scattered Clouds
3:56 PM 36.9 °F - 21.0 °F 53% 30.28 in 10.0 mi Calm Calm - N/A   Partly Cloudy
4:56 PM 32.9 °F 24.7 °F 23.0 °F 67% 30.31 in 10.0 mi NW 10.4 mph - N/A   Clear
5:56 PM 32.0 °F 23.0 °F 21.0 °F 64% 30.33 in 10.0 mi WNW 11.5 mph - N/A   Scattered Clouds
6:56 PM 32.0 °F 26.4 °F 22.1 °F 67% 30.35 in 10.0 mi NW 5.8 mph - N/A   Overcast
7:56 PM 25.2 °F 18.3 °F 19.0 °F 78% 30.39 in 10.0 mi ENE 5.8 mph - N/A   Clear
8:56 PM 24.1 °F - 15.1 °F 69% 30.41 in 10.0 mi Calm Calm - N/A   Clear
9:56 PM 23.0 °F 14.7 °F 17.1 °F 78% 30.41 in 10.0 mi ESE 6.9 mph - N/A   Clear
10:56 PM 16.2 °F - 12.0 °F 84% 30.45 in 10.0 mi Calm Calm - N/A   Clear
11:56 PM 16.2 °F 6.5 °F 12.0 °F 84% 30.45 in 9.0 mi East 6.9 mph - N/A   Clear